Location: Hylvaty SDH
(49.9612°N, 16.4057°E)
Time: 12:42:36
(UTC+01:00)

Tiros 1 - Pass Details

Date: 07 October 2020
Orbit: 630 x 663 km, 48.4° (Epoch: 28 October)

Event Time Altitude Azimuth Distance (km) Brightness Sun altitude
Rises 15:45:18 0° 273° (W) 2,949 11.2 21.6°
Reaches altitude 10° 15:47:37 10° 272° (W) 2,045 10.6 21.3°
Maximum altitude 15:52:19 69° 189° (S) 696 7.9 20.7°
Drops below altitude 10° 15:57:03 10° 107° (ESE) 2,063 9.5 20.1°
Sets 15:59:24 0° 105° (ESE) 2,978 10.2 19.8°
